NOAA 16 DEB, 41073

Orbit data source: Space-Track

NOAA 16 DEB, 41073 is space debris in SSO originally from a launch on Thu, 21 Sep 2000 UTC launched from the Air Force Western Test Range (AFWTR). Debris objects in space refer to the collection of defunct objects orbiting the Earth. Examples of debris include non-operational satellites, rocket bodies, and fragments generated from explosions, collisions, or faulty payload assembly.

Loading next visibility...
NOAA 16 DEB details
Identifier
41073, 2000-055AG
Orbit
SSO
Last TLE update1 day ago
Origin
Flag of USNOAA (US)
ManufacturerUnknown
MissionSpacecraft
Bus & MotorUnknown
MassUnknown
Launch date (UTC)
2000-09-21 (24 years ago)
Launch vehicleUnknown
Launch site
Air Force Western Test Range (AFWTR)
Object type
Payload
Rocket body
Debris
Shape & HBRUnknown
Radar Cross SectionSmall (<0.1 m²)

Expand to show TLE details & history

TLE from 1 day ago
0 NOAA 16 DEB
1 41073U 00055AG  25024.75925090  .00008183  00000-0  32868-2 0  9994
2 41073  98.7720 128.0802 0020496 222.5506 137.4087 14.28297154474675
Epoch: 2025-01-24T18:13Z
Definitive object data (Epoch: 2025-01-24T18:13:19.277Z)
Latitude-0.00007°
Longitude90.43208°
Altitude811.195 km
Speed7.442 km/s
True Right ascension08h 32m 19s
True Declination0° 00' 00"
Sunlit
Object was in full shadow at TLE epoch
Visualization TLE readout
Latitude14.71452°
Longitude-86.24026°
Altitude791.025 km
Speed7.464 km/s
Apparent Right ascension22h 35m 05s
Apparent Declination-42° 48' 52"
Sunlit
Object is in daylight
Visualization observer readout
Local Sidereal Time19:52:41
Azimuth151.487° SSE
Elevation-0.509°
Doppler factor1
Orbital elements
Apogee altitude809.28 km
Perigee altitude779.878 km
Semi-major axis7,172.716 km
Eccentricity0.0020496
Inclination98.772°
RAAN128.0802°
Arg. of periapsis222.5506°
True anomaly137.56735°
Mean anomaly137.4087°
Eccentric anomaly137.48805°
Mean motion3.57287 °/min
BSTAR0.0032868
Orbital period100.76 mins
Loading maneuver chart data...
Loading historical data...
Loading historical data...
Loading historical data...
Loading historical data...
Loading historical data...
Loading historical data...
Loading historical data...

NOAA 16 DEB Visibility forecast

Observer location: undefined°, undefined

Span
Click to sort rows by Start time (UTC) header in descending order
Start Az.
Max El. time (UTC)
Max El. Az.
Max El.
End time (UTC)
End Az.
9 mins2025-01-25 20:00:54.417Z3.991° NNE2025-01-25 20:04:54.417Z309.827° NW39.932°2025-01-25 20:09:54.417Z210.744° SW
6 mins2025-01-26 05:41:54.417Z101.383° ESE2025-01-26 05:43:54.417Z70.406° E23.092°2025-01-26 05:47:54.417Z15.402° NNE
8 mins2025-01-26 07:19:54.417Z199.117° SSW2025-01-26 07:23:54.417Z272.015° WNW32.632°2025-01-26 07:27:54.417Z328.272° NNW
|